This demonstration page uses our WeatherBlox Daily Observations layout. Learn more.

Hourly Observations for February 20, 2015

Temp ( °F °C ) Dew Point ( °F °C ) Humidity (%) Winds ( mph kmh ) Pressure ( in mb ) Visibility ( mi km ) Precip ( " mm )
12:15 am 00:15 Clear 19 -7 12 -11.2 72 72 S 10 17 30.06 1018 10 16.0934 0 0
12:35 am 00:35 Clear 19 -7 12 -11.1 73 73 S 12 19 30.06 1018 10 16.0934 0 0
12:55 am 00:55 Clear 19 -7 12 -11.1 73 73 S 10 17 30.06 1018 10 16.0934 0 0
1:15 am 01:15 Partly Cloudy 20 -6.7 12 -11 72 72 S 12 19 30.06 1018 10 16.0934 0 0
1:35 am 01:35 Mostly Cloudy 20 -6.5 12 -11 71 71 S 12 19 30.06 1018 10 16.0934 0 0
1:55 am 01:55 Cloudy 21 -6 13 -10.6 70 70 S 10 17 30.06 1018 10 16.0934 0 0
2:15 am 02:15 Cloudy 22 -5.5 13 -10.6 68 68 S 10 17 30.06 1018 10 16.0934 0 0
2:35 am 02:35 Cloudy 22 -5.3 13 -10.5 67 67 SSW 7 11 30.06 1018 10 16.0934 0 0
2:55 am 02:55 Mostly Cloudy 22 -5.5 13 -10.6 68 68 SSW 5 7 30.06 1018 10 16.0934 0 0
3:15 am 03:15 Cloudy 22 -5.6 13 -10.5 69 69 SSW 8 13 30.03 1017 10 16.0934 0 0
3:35 am 03:35 Cloudy 22 -5.4 14 -10.2 69 69 Calm 30.03 1017 10 16.0934 0 0
3:55 am 03:55 Cloudy 23 -5 14 -10 68 68 SW 6 9 30.03 1017 10 16.0934 0 0
4:15 am 04:15 Cloudy 24 -4.5 14 -9.8 67 67 SSW 6 9 30 1016 10 16.0934 0 0
4:35 am 04:35 Cloudy 24 -4.3 14 -10 65 65 SW 3 6 30 1016 10 16.0934 0 0
4:55 am 04:55 Mostly Cloudy 24 -4.5 14 -10 66 66 Calm 30 1016 10 16.0934 0 0
5:15 am 05:15 Clear 23 -4.8 14 -10 67 67 SSW 5 7 30 1016 10 16.0934 0 0
5:35 am 05:35 Clear 23 -5.2 14 -10.1 69 69 SW 6 9 30 1016 10 16.0934 0 0
5:55 am 05:55 Clear 22 -5.5 14 -10.2 70 70 Calm 30 1016 10 16.0934 0 0
6:15 am 06:15 Clear 21 -5.9 13 -10.3 71 71 Calm 30 1016 10 16.0934 0 0
6:35 am 06:35 Clear 20 -6.6 13 -10.3 75 75 N 7 11 30 1016 10 16.0934 0 0
6:55 am 06:55 Mostly Cloudy 22 -5.7 14 -9.8 73 73 N 3 6 30 1016 10 16.0934 0 0
7:15 am 07:15 Partly Cloudy 21 -6 15 -9.6 76 76 Calm 30 1016 10 16.0934 0 0
7:35 am 07:35 Sunny 22 -5.3 15 -9.5 73 73 Calm 30 1016 10 16.0934 0 0
7:55 am 07:55 Partly Cloudy 24 -4.6 15 -9.2 71 71 S 6 9 29.94 1014 10 16.0934 0 0
8:15 am 08:15 Mostly Cloudy 25 -3.7 17 -8.3 71 71 Calm 29.94 1014 10 16.0934 0 0
8:35 am 08:35 Partly Cloudy 27 -2.8 17 -8.3 66 66 Calm 29.97 1015 10 16.0934 0 0
8:55 am 08:55 Sunny 28 -2.3 17 -8.5 63 63 Calm 29.97 1015 10 16.0934 0 0
9:15 am 09:15 Sunny 29 -1.5 17 -8.5 59 59 Calm 29.94 1014 10 16.0934 0 0
9:35 am 09:35 Sunny 30 -1 17 -8.3 58 58 SSW 3 6 29.94 1014 10 16.0934 0 0
9:55 am 09:55 Partly Cloudy 31 -0.6 18 -8 58 58 SSW 3 6 29.94 1014 10 16.0934 0 0
10:15 am 10:15 Mostly Cloudy 32 0 19 -7.5 57 57 Calm 29.91 1013 10 16.0934 0 0
10:35 am 10:35 Partly Cloudy 34 1.2 19 -7.2 54 54 Calm 29.88 1012 10 16.0934 0 0
10:55 am 10:55 Sunny 36 2.2 19 -7.1 51 51 Calm 29.88 1012 10 16.0934 0 0
11:15 am 11:15 Sunny 38 3.3 20 -6.6 49 49 Calm 29.88 1012 10 16.0934 0 0
11:35 am 11:35 Sunny 40 4.4 21 -6 47 47 Calm 29.88 1012 10 16.0934 0 0
11:55 am 11:55 Sunny 42 5.7 23 -4.9 47 47 ENE 5 7 29.85 1011 10 16.0934 0 0
12:15 pm 12:15 Sunny 44 6.4 24 -4.6 46 46 ENE 7 11 29.83 1010 10 16.0934 0 0
12:35 pm 12:35 Partly Cloudy 45 7.1 24 -4.2 45 45 ENE 5 7 29.83 1010 10 16.0934 0 0
12:55 pm 12:55 Partly Cloudy 46 7.5 26 -3.6 46 46 ENE 8 13 29.8 1009 10 16.0934 0 0
1:15 pm 13:15 Sunny 48 8.7 26 -3.2 43 43 E 7 11 29.8 1009 10 16.0934 0 0
1:35 pm 13:35 Sunny 48 8.9 26 -3.5 42 42 ENE 9 15 29.8 1009 10 16.0934 0 0
1:55 pm 13:55 Sunny 49 9.2 26 -3.6 41 41 E 12 19 29.8 1009 10 16.0934 0 0
2:15 pm 14:15 Sunny 49 9.7 25 -3.9 38 38 ENE 12 19 29.8 1009 10 16.0934 0 0
2:35 pm 14:35 Sunny 49 9.6 24 -4.5 37 37 NE 12 19 29.8 1009 10 16.0934 0 0
2:55 pm 14:55 Sunny 50 10.1 24 -4.7 35 35 NE 13 20 29.8 1009 10 16.0934 0 0
3:15 pm 15:15 Partly Cloudy 49 9.5 24 -4.5 37 37 ENE 13 20 29.8 1009 10 16.0934 0 0
3:35 pm 15:35 Partly Cloudy 48 9 24 -4.3 39 39 NE 10 17 29.8 1009 10 16.0934 0 0
3:55 pm 15:55 Mostly Cloudy 47 8.6 25 -4 41 41 ENE 9 15 29.8 1009 10 16.0934 0 0
4:15 pm 16:15 Cloudy 47 8.3 25 -3.7 43 43 ENE 9 15 29.8 1009 10 16.0934 0 0
4:35 pm 16:35 Cloudy 47 8.5 26 -3.5 43 43 NNE 15 24 29.8 1009 10 16.0934 0 0
4:55 pm 16:55 Mostly Cloudy 48 8.8 26 -3.4 42 42 NE 12 19 29.8 1009 10 16.0934 0 0
5:15 pm 17:15 Sunny 46 8 26 -3.1 46 46 NE 13 20 29.8 1009 10 16.0934 0 0
5:35 pm 17:35 Mostly Cloudy 46 7.6 27 -2.8 48 48 NE 9 15 29.8 1009 10 16.0934 0 0
5:55 pm 17:55 Cloudy 44 6.9 27 -3 50 50 NE 6 9 29.83 1010 10 16.0934 0 0
6:15 pm 18:15 Cloudy 43 6 27 -3 53 53 NE 8 13 29.83 1010 10 16.0934 0 0
6:35 pm 18:35 Cloudy 42 5.8 27 -3 54 54 NNE 7 11 29.85 1011 10 16.0934 0 0
6:55 pm 18:55 Cloudy 41 5.2 26 -3.1 55 55 NNE 7 11 29.85 1011 10 16.0934 0 0
7:15 pm 19:15 Cloudy 39 4.1 26 -3.3 59 59 NE 5 7 29.88 1012 10 16.0934 0 0
7:35 pm 19:35 Cloudy 39 3.8 26 -3.6 59 59 NNE 5 7 29.88 1012 10 16.0934 0 0
7:55 pm 19:55 Mostly Cloudy 39 3.9 26 -3.1 61 61 NNE 8 13 29.91 1013 10 16.0934 0 0
8:15 pm 20:15 Mostly Cloudy 41 5.1 29 -1.4 63 63 NNE 13 20 29.88 1012 10 16.0934 0 0
8:35 pm 20:35 Cloudy 41 5 31 -0.7 67 67 NE 6 9 29.88 1012 10 16.0934 0 0
8:55 pm 20:55 Cloudy 39 4 30 -1.2 69 69 Calm 29.91 1013 10 16.0934 0 0
9:15 pm 21:15 Cloudy 39 3.8 30 -1 71 71 Calm 29.88 1012 10 16.0934 0 0
9:35 pm 21:35 Cloudy 37 2.7 28 -2.3 70 70 Calm 29.91 1013 10 16.0934 0 0
9:55 pm 21:55 Cloudy 38 3.1 29 -1.5 72 72 Calm 29.91 1013 10 16.0934 0 0
10:15 pm 22:15 Cloudy 38 3.3 30 -1.2 73 73 SW 7 11 29.91 1013 10 16.0934 0 0
10:35 pm 22:35 Cloudy 38 3.1 30 -1.3 73 73 Calm 29.94 1014 10 16.0934 0 0
10:55 pm 22:55 Cloudy 37 3 29 -1.4 73 73 SW 3 6 29.94 1014 10 16.0934 0 0
11:15 pm 23:15 Cloudy 37 2.7 29 -1.5 74 74 Calm 29.94 1014 10 16.0934 0 0
11:35 pm 23:35 Cloudy 37 3 30 -1.2 74 74 Calm 29.94 1014 10 16.0934 0 0
11:55 pm 23:55 Cloudy 37 2.6 30 -1.2 76 76 WNW 7 11 29.97 1015 10 16.0934 0 0

Powered by AerisWeather